START_TIME,STEP,MOV.,AL01,t_acc.,AL02,t_acc.,E37,t_acc.,H21,t_acc.
1979-07-27 18:00:33.540 ,1,1,0.,24.0,1.,24.0,0.,24.0,0.,24.0
1979-07-27 18:00:57.540 ,2,1,0.,24.0,0.,24.0,3.,24.0,0.,24.0
1979-07-27 18:01:21.540 ,6,1,0.,24.0,0.,24.0,1.,24.0,0.,24.0
1979-07-27 18:01:45.540 ,5,1,13.,24.0,0.,24.0,7.,24.0,0.,24.0
1979-07-27 18:02:09.540 ,1,1,0.,24.0,0.,24.0,2.,24.0,0.,24.0
1979-07-27 18:02:33.540 ,2,1,0.,24.0,1.,24.0,1.,24.0,0.,24.0
1979-07-27 18:02:57.540 ,6,1,0.,24.0,0.,24.0,3.,24.0,0.,24.0
1979-07-27 18:03:21.540 ,5,1,11.,24.0,0.,24.0,4.,24.0,0.,24.0
1979-07-27 18:03:45.540 ,1,1,0.,24.0,0.,24.0,2.,24.0,0.,24.0
1979-07-27 18:04:09.540 ,2,1,0.,24.0,0.,24.0,1.,24.0,0.,24.0
1979-07-27 18:04:33.540 ,6,1,0.,24.0,0.,24.0,0.,24.0,0.,24.0
1979-07-27 18:04:57.540 ,5,1,14.,24.0,1.,24.0,4.,24.0,0.,24.0
1979-07-27 18:05:21.540 ,1,1,0.,24.0,0.,24.0,2.,24.0,0.,24.0
1979-07-27 18:05:45.540 ,0,0,0.,24.0,0.,24.0,2.,24.0,0.,24.0
1979-07-27 18:06:09.540 ,0,0,0.,24.0,0.,24.0,3.,24.0,0.,24.0
1979-07-27 18:06:33.540 ,5,1,13.,24.0,0.,24.0,4.,24.0,0.,24.0
1979-07-27 18:06:57.540 ,5,0,0.,24.0,0.,24.0,4.,24.0,0.,24.0
1979-07-27 18:07:21.540 ,4,1,0.,24.0,0.,24.0,3.,24.0,0.,24.0
1979-07-27 18:07:45.540 ,4,0,0.,24.0,0.,24.0,1.,24.0,0.,24.0
1979-07-27 18:08:09.540 ,3,1,0.,24.0,0.,24.0,5.,24.0,0.,24.0
1979-07-27 18:08:33.540 ,3,0,0.,24.0,0.,24.0,4.,24.0,0.,24.0
1979-07-27 18:08:57.540 ,2,1,0.,24.0,0.,24.0,2.,24.0,0.,24.0
1979-07-27 18:09:21.540 ,2,0,1.,24.0,0.,24.0,1.,24.0,0.,24.0
1979-07-27 18:09:45.540 ,1,1,0.,24.0,0.,24.0,1.,24.0,0.,24.0
1979-07-27 18:10:09.540 ,1,0,0.,24.0,0.,24.0,5.,24.0,0.,24.0
1979-07-27 18:10:33.540 ,0,1,0.,24.0,0.,24.0,1.,24.0,0.,24.0
1979-07-27 18:10:57.540 ,0,0,0.,24.0,0.,24.0,1.,24.0,0.,24.0
1979-07-27 18:11:21.540 ,0,1,0.,24.0,0.,24.0,6.,24.0,0.,24.0
1979-07-27 18:11:45.540 ,0,0,0.,24.0,0.,24.0,4.,24.0,0.,24.0
1979-07-27 18:12:09.540 ,1,1,1.,24.0,0.,24.0,1.,24.0,0.,24.0
1979-07-27 18:12:33.540 ,1,0,0.,24.0,0.,24.0,2.,24.0,0.,24.0
1979-07-27 18:12:57.540 ,2,1,1.,24.0,0.,24.0,4.,24.0,0.,24.0
1979-07-27 18:13:21.540 ,2,0,0.,24.0,0.,24.0,4.,24.0,0.,24.0
1979-07-27 18:13:45.540 ,3,1,0.,24.0,0.,24.0,2.,24.0,0.,24.0
1979-07-27 18:14:09.540 ,3,0,0.,24.0,0.,24.0,2.,24.0,0.,24.0
1979-07-27 18:14:33.540 ,4,1,0.,24.0,0.,24.0,1.,24.0,0.,24.0
1979-07-27 18:14:57.540 ,4,0,0.,24.0,0.,24.0,3.,24.0,0.,24.0
1979-07-27 18:15:21.540 ,5,1,0.,24.0,0.,24.0,6.,24.0,0.,24.0
1979-07-27 18:15:45.540 ,5,0,0.,24.0,0.,24.0,5.,24.0,0.,24.0
1979-07-27 18:16:09.540 ,6,1,0.,24.0,0.,24.0,4.,24.0,0.,24.0
1979-07-27 18:16:33.540 ,6,0,0.,24.0,0.,24.0,4.,24.0,0.,24.0
1979-07-27 18:16:57.540 ,7,1,7.,24.0,0.,24.0,3.,24.0,0.,24.0
1979-07-27 18:17:21.540 ,7,0,34.,24.0,0.,24.0,4.,24.0,0.,24.0
1979-07-27 18:17:45.540 ,7,1,40.,24.0,0.,24.0,1.,24.0,0.,24.0
1979-07-27 18:18:09.540 ,7,0,33.,24.0,0.,24.0,9.,24.0,0.,24.0
1979-07-27 18:18:33.540 ,6,1,25.,24.0,0.,24.0,3.,24.0,0.,24.0
1979-07-27 18:18:57.540 ,6,0,0.,24.0,0.,24.0,5.,24.0,0.,24.0
1979-07-27 18:19:21.540 ,5,1,0.,24.0,0.,24.0,5.,24.0,0.,24.0
1979-07-27 18:19:45.540 ,5,0,0.,24.0,0.,24.0,4.,24.0,0.,24.0
1979-07-27 18:20:09.540 ,4,1,0.,24.0,0.,24.0,7.,24.0,0.,24.0
1979-07-27 18:20:33.540 ,4,0,0.,24.0,0.,24.0,3.,24.0,0.,24.0
1979-07-27 18:20:57.540 ,3,1,0.,24.0,0.,24.0,4.,24.0,0.,24.0
1979-07-27 18:21:21.540 ,3,0,0.,24.0,0.,24.0,4.,24.0,0.,24.0
1979-07-27 18:21:45.540 ,2,1,0.,24.0,0.,24.0,3.,24.0,0.,24.0
1979-07-27 18:22:09.540 ,2,0,0.,24.0,0.,24.0,3.,24.0,0.,24.0
1979-07-27 18:22:33.540 ,1,1,0.,24.0,0.,24.0,2.,24.0,0.,24.0
1979-07-27 18:22:57.540 ,1,0,0.,24.0,0.,24.0,3.,24.0,0.,24.0
1979-07-27 18:23:21.540 ,0,1,0.,24.0,0.,24.0,4.,24.0,0.,24.0
1979-07-27 18:23:45.540 ,0,0,0.,24.0,0.,24.0,3.,24.0,0.,24.0
1979-07-27 18:24:09.540 ,0,1,0.,24.0,0.,24.0,1.,24.0,0.,24.0
1979-07-27 18:24:33.540 ,0,0,0.,24.0,0.,24.0,1.,24.0,0.,24.0
1979-07-27 18:24:57.540 ,1,1,0.,24.0,1.,24.0,6.,24.0,0.,24.0
1979-07-27 18:25:21.540 ,1,0,1.,24.0,0.,24.0,3.,24.0,0.,24.0
1979-07-27 18:25:45.540 ,2,1,0.,24.0,0.,24.0,2.,24.0,0.,24.0
1979-07-27 18:26:09.540 ,2,0,0.,24.0,0.,24.0,5.,24.0,0.,24.0
1979-07-27 18:26:33.540 ,3,1,0.,24.0,0.,24.0,4.,24.0,0.,24.0
1979-07-27 18:26:57.540 ,3,0,1.,24.0,0.,24.0,2.,24.0,0.,24.0
1979-07-27 18:27:21.540 ,4,1,0.,24.0,1.,24.0,8.,24.0,0.,24.0
1979-07-27 18:27:45.540 ,4,0,0.,24.0,0.,24.0,7.,24.0,0.,24.0
1979-07-27 18:28:09.540 ,5,1,0.,24.0,0.,24.0,6.,24.0,0.,24.0
1979-07-27 18:28:33.540 ,5,0,0.,24.0,0.,24.0,2.,24.0,0.,24.0
1979-07-27 18:28:57.540 ,6,1,0.,24.0,0.,24.0,5.,24.0,0.,24.0
1979-07-27 18:29:21.540 ,6,0,0.,24.0,0.,24.0,7.,24.0,0.,24.0
1979-07-27 18:29:45.540 ,7,1,8.,24.0,0.,24.0,2.,24.0,0.,24.0
1979-07-27 18:30:09.540 ,7,0,30.,24.0,0.,24.0,1.,24.0,0.,24.0
1979-07-27 18:30:33.540 ,7,1,31.,24.0,0.,24.0,5.,24.0,0.,24.0
1979-07-27 18:30:57.540 ,7,0,31.,24.0,0.,24.0,3.,24.0,0.,24.0
1979-07-27 18:31:21.540 ,6,1,27.,24.0,0.,24.0,2.,24.0,0.,24.0
1979-07-27 18:31:45.540 ,6,0,0.,24.0,0.,24.0,5.,24.0,0.,24.0
1979-07-27 18:32:09.540 ,5,1,0.,24.0,0.,24.0,0.,24.0,0.,24.0
1979-07-27 18:32:33.540 ,5,0,0.,24.0,0.,24.0,4.,24.0,0.,24.0
1979-07-27 18:32:57.540 ,4,1,0.,24.0,0.,24.0,1.,24.0,0.,24.0
1979-07-27 18:33:21.540 ,4,0,0.,24.0,0.,24.0,3.,24.0,0.,24.0
1979-07-27 18:33:45.540 ,3,1,0.,24.0,1.,24.0,8.,24.0,0.,24.0
1979-07-27 18:34:09.540 ,3,0,0.,24.0,0.,24.0,2.,24.0,0.,24.0
1979-07-27 18:34:33.540 ,2,1,0.,24.0,0.,24.0,0.,24.0,0.,24.0
1979-07-27 18:34:57.540 ,2,0,0.,24.0,0.,24.0,2.,24.0,0.,24.0
1979-07-27 18:35:21.540 ,1,1,0.,24.0,0.,24.0,0.,24.0,0.,24.0
1979-07-27 18:35:45.540 ,1,0,0.,24.0,0.,24.0,0.,24.0,0.,24.0
1979-07-27 18:36:09.540 ,0,1,0.,24.0,0.,24.0,3.,24.0,0.,24.0
1979-07-27 18:36:33.540 ,0,0,0.,24.0,0.,24.0,2.,24.0,0.,24.0
1979-07-27 18:36:57.540 ,0,1,0.,24.0,0.,24.0,3.,24.0,0.,24.0
1979-07-27 18:37:21.540 ,0,0,1.,24.0,0.,24.0,2.,24.0,0.,24.0
1979-07-27 18:37:45.540 ,1,1,0.,24.0,0.,24.0,8.,24.0,0.,24.0
1979-07-27 18:38:09.540 ,1,0,0.,24.0,0.,24.0,1.,24.0,0.,24.0
1979-07-27 18:38:33.540 ,2,1,1.,24.0,0.,24.0,0.,24.0,0.,24.0
1979-07-27 18:38:57.540 ,2,0,0.,24.0,0.,24.0,2.,24.0,0.,24.0
1979-07-27 18:39:21.540 ,3,1,0.,24.0,0.,24.0,5.,24.0,0.,24.0
1979-07-27 18:39:45.540 ,3,0,0.,24.0,0.,24.0,5.,24.0,0.,24.0
1979-07-27 18:40:09.540 ,4,1,0.,24.0,0.,24.0,2.,24.0,0.,24.0
1979-07-27 18:40:33.540 ,4,0,0.,24.0,0.,24.0,5.,24.0,0.,24.0
1979-07-27 18:40:57.540 ,5,1,0.,24.0,0.,24.0,3.,24.0,0.,24.0
1979-07-27 18:41:21.540 ,5,0,0.,24.0,0.,24.0,7.,24.0,0.,24.0
1979-07-27 18:41:45.540 ,6,1,0.,24.0,0.,24.0,4.,24.0,0.,24.0
1979-07-27 18:42:09.540 ,6,0,0.,24.0,0.,24.0,3.,24.0,0.,24.0
1979-07-27 18:42:33.540 ,7,0,4.,24.0,0.,24.0,2.,24.0,0.,24.0
1979-07-27 18:42:57.540 ,7,0,44.,24.0,0.,24.0,3.,24.0,0.,24.0
1979-07-27 18:43:21.540 ,5,1,20.,24.0,0.,24.0,4.,24.0,0.,24.0
1979-07-27 18:43:45.540 ,1,1,1.,24.0,1.,24.0,4.,24.0,0.,24.0
1979-07-27 18:44:09.540 ,2,1,0.,24.0,0.,24.0,2.,24.0,0.,24.0
1979-07-27 18:44:33.540 ,6,1,0.,24.0,0.,24.0,4.,24.0,0.,24.0
1979-07-27 18:44:57.540 ,5,1,16.,24.0,0.,24.0,4.,24.0,0.,24.0
1979-07-27 18:45:21.540 ,1,1,0.,24.0,0.,24.0,4.,24.0,0.,24.0
1979-07-27 18:45:45.540 ,2,1,0.,24.0,0.,24.0,5.,24.0,0.,24.0
1979-07-27 18:46:09.540 ,6,1,0.,24.0,0.,24.0,4.,24.0,0.,24.0
1979-07-27 18:46:33.540 ,5,1,25.,24.0,0.,24.0,2.,24.0,0.,24.0
1979-07-27 18:46:57.540 ,1,1,0.,24.0,0.,24.0,2.,24.0,0.,24.0
1979-07-27 18:47:21.540 ,2,1,0.,24.0,0.,24.0,3.,24.0,0.,24.0
1979-07-27 18:47:45.540 ,6,1,0.,24.0,0.,24.0,3.,24.0,0.,24.0
1979-07-27 18:48:09.540 ,5,1,15.,24.0,0.,24.0,5.,24.0,0.,24.0
1979-07-27 18:48:33.540 ,1,1,0.,24.0,1.,24.0,2.,24.0,0.,24.0
1979-07-27 18:48:57.540 ,2,1,0.,24.0,0.,24.0,5.,24.0,0.,24.0
1979-07-27 18:49:21.540 ,6,1,0.,24.0,0.,24.0,4.,24.0,0.,24.0
1979-07-27 18:49:45.540 ,5,1,23.,24.0,0.,24.0,1.,24.0,0.,24.0
1979-07-27 18:50:09.540 ,1,1,0.,24.0,0.,24.0,2.,24.0,0.,24.0
1979-07-27 18:50:33.540 ,2,1,0.,24.0,0.,24.0,0.,24.0,0.,24.0
1979-07-27 18:50:57.540 ,6,1,1.,24.0,0.,24.0,1.,24.0,0.,24.0
1979-07-27 18:51:21.540 ,5,1,21.,24.0,0.,24.0,1.,24.0,0.,24.0
1979-07-27 18:51:45.540 ,1,1,0.,24.0,0.,24.0,4.,24.0,0.,24.0
1979-07-27 18:52:09.540 ,2,1,0.,24.0,1.,24.0,5.,24.0,0.,24.0
1979-07-27 18:52:33.540 ,6,1,0.,24.0,0.,24.0,5.,24.0,0.,24.0
1979-07-27 18:52:57.540 ,5,1,16.,24.0,0.,24.0,3.,24.0,0.,24.0
1979-07-27 18:53:21.540 ,1,1,0.,24.0,0.,24.0,2.,24.0,0.,24.0
1979-07-27 18:53:45.540 ,0,0,0.,24.0,0.,24.0,3.,24.0,0.,24.0
1979-07-27 18:54:09.540 ,0,0,0.,24.0,0.,24.0,5.,24.0,0.,24.0
1979-07-27 18:54:33.540 ,5,1,19.,24.0,0.,24.0,1.,24.0,0.,24.0
1979-07-27 18:54:57.540 ,5,0,0.,24.0,0.,24.0,6.,24.0,0.,24.0
1979-07-27 18:55:21.540 ,4,1,0.,24.0,0.,24.0,2.,24.0,0.,24.0
1979-07-27 18:55:45.540 ,4,0,0.,24.0,0.,24.0,4.,24.0,0.,24.0
1979-07-27 18:56:09.540 ,3,1,0.,24.0,0.,24.0,0.,24.0,0.,24.0
1979-07-27 18:56:33.540 ,3,0,1.,24.0,0.,24.0,3.,24.0,0.,24.0
1979-07-27 18:56:57.540 ,2,1,0.,24.0,0.,24.0,1.,24.0,0.,24.0
1979-07-27 18:57:21.540 ,2,0,0.,24.0,0.,24.0,2.,24.0,0.,24.0
1979-07-27 18:57:45.540 ,1,1,0.,24.0,0.,24.0,0.,24.0,0.,24.0
1979-07-27 18:58:09.540 ,1,0,0.,24.0,0.,24.0,1.,24.0,0.,24.0
1979-07-27 18:58:33.540 ,0,1,1.,24.0,0.,24.0,4.,24.0,0.,24.0
1979-07-27 18:58:57.540 ,0,0,0.,24.0,0.,24.0,2.,24.0,0.,24.0
1979-07-27 18:59:21.540 ,0,1,0.,24.0,0.,24.0,2.,24.0,0.,24.0
1979-07-27 18:59:45.540 ,0,0,0.,24.0,0.,24.0,2.,24.0,0.,24.0
1979-07-27 19:00:09.540 ,1,1,0.,24.0,0.,24.0,4.,24.0,0.,24.0
1979-07-27 19:00:33.540 ,1,0,0.,24.0,0.,24.0,2.,24.0,0.,24.0
1979-07-27 19:00:57.540 ,2,1,1.,24.0,0.,24.0,1.,24.0,0.,24.0
1979-07-27 19:01:21.540 ,2,0,0.,24.0,0.,24.0,2.,24.0,0.,24.0
1979-07-27 19:01:45.540 ,3,1,1.,24.0,0.,24.0,2.,24.0,0.,24.0
1979-07-27 19:02:09.540 ,3,0,0.,24.0,0.,24.0,1.,24.0,0.,24.0
1979-07-27 19:02:33.540 ,4,1,0.,24.0,0.,24.0,4.,24.0,0.,24.0
1979-07-27 19:02:57.540 ,4,0,0.,24.0,0.,24.0,2.,24.0,0.,24.0
1979-07-27 19:03:21.540 ,5,1,0.,24.0,0.,24.0,3.,24.0,0.,24.0
1979-07-27 19:03:45.540 ,5,0,0.,24.0,0.,24.0,3.,24.0,0.,24.0
1979-07-27 19:04:09.540 ,6,1,0.,24.0,0.,24.0,2.,24.0,0.,24.0
1979-07-27 19:04:33.540 ,6,0,0.,24.0,0.,24.0,1.,24.0,0.,24.0
1979-07-27 19:04:57.540 ,7,1,8.,24.0,0.,24.0,1.,24.0,0.,24.0
1979-07-27 19:05:21.540 ,7,0,26.,24.0,0.,24.0,5.,24.0,0.,24.0
1979-07-27 19:05:45.540 ,7,1,31.,24.0,0.,24.0,2.,24.0,0.,24.0
1979-07-27 19:06:09.540 ,7,0,31.,24.0,0.,24.0,3.,24.0,0.,24.0
1979-07-27 19:06:33.540 ,6,1,23.,24.0,0.,24.0,4.,24.0,0.,24.0
1979-07-27 19:06:57.540 ,6,0,0.,24.0,0.,24.0,4.,24.0,0.,24.0
1979-07-27 19:07:21.540 ,5,1,0.,24.0,0.,24.0,3.,24.0,0.,24.0
1979-07-27 19:07:45.540 ,5,0,0.,24.0,0.,24.0,5.,24.0,0.,24.0
1979-07-27 19:08:09.540 ,4,1,0.,24.0,0.,24.0,3.,24.0,0.,24.0
1979-07-27 19:08:33.540 ,4,0,0.,24.0,0.,24.0,3.,24.0,0.,24.0
1979-07-27 19:08:57.540 ,3,1,0.,24.0,0.,24.0,1.,24.0,0.,24.0
1979-07-27 19:09:21.540 ,3,0,0.,24.0,0.,24.0,6.,24.0,0.,24.0
1979-07-27 19:09:45.540 ,2,1,1.,24.0,0.,24.0,3.,24.0,0.,24.0
1979-07-27 19:10:09.540 ,2,0,1.,24.0,0.,24.0,2.,24.0,0.,24.0
1979-07-27 19:10:33.540 ,1,1,0.,24.0,0.,24.0,3.,24.0,0.,24.0
1979-07-27 19:10:57.540 ,1,0,0.,24.0,0.,24.0,2.,24.0,0.,24.0
1979-07-27 19:11:21.540 ,0,1,0.,24.0,0.,24.0,2.,24.0,0.,24.0
1979-07-27 19:11:45.540 ,0,0,1.,24.0,0.,24.0,2.,24.0,0.,24.0
1979-07-27 19:12:09.540 ,0,1,0.,24.0,0.,24.0,3.,24.0,0.,24.0
1979-07-27 19:12:33.540 ,0,0,0.,24.0,0.,24.0,4.,24.0,0.,24.0
1979-07-27 19:12:57.540 ,1,1,0.,24.0,0.,24.0,1.,24.0,0.,24.0
1979-07-27 19:13:21.540 ,1,0,0.,24.0,0.,24.0,3.,24.0,0.,24.0
1979-07-27 19:13:45.540 ,2,1,1.,24.0,0.,24.0,1.,24.0,0.,24.0
1979-07-27 19:14:09.540 ,2,0,0.,24.0,0.,24.0,2.,24.0,0.,24.0
1979-07-27 19:14:33.540 ,3,1,1.,24.0,0.,24.0,3.,24.0,0.,24.0
1979-07-27 19:14:57.540 ,3,0,0.,24.0,0.,24.0,0.,24.0,0.,24.0
1979-07-27 19:15:21.540 ,4,1,0.,24.0,0.,24.0,1.,24.0,0.,24.0
1979-07-27 19:15:45.540 ,4,0,0.,24.0,0.,24.0,4.,24.0,0.,24.0
1979-07-27 19:16:09.540 ,5,1,0.,24.0,0.,24.0,3.,24.0,0.,24.0
1979-07-27 19:16:33.540 ,5,0,0.,24.0,0.,24.0,4.,24.0,0.,24.0
1979-07-27 19:16:57.540 ,6,1,0.,24.0,0.,24.0,3.,24.0,0.,24.0
1979-07-27 19:17:21.540 ,6,0,0.,24.0,1.,24.0,1.,24.0,0.,24.0
1979-07-27 19:17:45.540 ,7,1,5.,24.0,0.,24.0,0.,24.0,0.,24.0
1979-07-27 19:18:09.540 ,7,0,38.,24.0,0.,24.0,4.,24.0,0.,24.0
1979-07-27 19:18:33.540 ,7,1,37.,24.0,1.,24.0,0.,24.0,0.,24.0
1979-07-27 19:18:57.540 ,7,0,33.,24.0,0.,24.0,5.,24.0,0.,24.0
1979-07-27 19:19:21.540 ,6,1,27.,24.0,0.,24.0,4.,24.0,0.,24.0
1979-07-27 19:19:45.540 ,6,0,0.,24.0,0.,24.0,1.,24.0,0.,24.0
1979-07-27 19:20:09.540 ,5,1,0.,24.0,0.,24.0,1.,24.0,0.,24.0
1979-07-27 19:20:33.540 ,5,0,0.,24.0,0.,24.0,5.,24.0,0.,24.0
1979-07-27 19:20:57.540 ,4,1,0.,24.0,0.,24.0,0.,24.0,0.,24.0
1979-07-27 19:21:21.540 ,4,0,0.,24.0,0.,24.0,3.,24.0,0.,24.0
1979-07-27 19:21:45.540 ,3,1,0.,24.0,0.,24.0,3.,24.0,0.,24.0
1979-07-27 19:22:09.540 ,3,0,0.,24.0,0.,24.0,1.,24.0,0.,24.0
1979-07-27 19:22:33.540 ,2,1,0.,24.0,0.,24.0,4.,24.0,0.,24.0
1979-07-27 19:22:57.540 ,2,0,0.,24.0,0.,24.0,0.,24.0,0.,24.0
1979-07-27 19:23:21.540 ,1,1,0.,24.0,0.,24.0,3.,24.0,0.,24.0
1979-07-27 19:23:45.540 ,1,0,0.,24.0,0.,24.0,3.,24.0,0.,24.0
1979-07-27 19:24:09.540 ,0,1,0.,24.0,0.,24.0,2.,24.0,0.,24.0
1979-07-27 19:24:33.540 ,0,0,0.,24.0,0.,24.0,1.,24.0,0.,24.0
1979-07-27 19:24:57.540 ,0,1,0.,24.0,0.,24.0,2.,24.0,0.,24.0
1979-07-27 19:25:21.540 ,0,0,0.,24.0,0.,24.0,3.,24.0,0.,24.0
1979-07-27 19:25:45.540 ,1,1,0.,24.0,0.,24.0,3.,24.0,0.,24.0
1979-07-27 19:26:09.540 ,1,0,0.,24.0,0.,24.0,1.,24.0,0.,24.0
1979-07-27 19:26:33.540 ,2,1,0.,24.0,0.,24.0,2.,24.0,0.,24.0
1979-07-27 19:26:57.540 ,2,0,0.,24.0,1.,24.0,1.,24.0,0.,24.0
1979-07-27 19:27:21.540 ,3,1,0.,24.0,0.,24.0,2.,24.0,0.,24.0
1979-07-27 19:27:45.540 ,3,0,0.,24.0,0.,24.0,3.,24.0,0.,24.0
1979-07-27 19:28:09.540 ,4,1,1.,24.0,0.,24.0,2.,24.0,0.,24.0
1979-07-27 19:28:33.540 ,4,0,1.,24.0,0.,24.0,0.,24.0,0.,24.0
1979-07-27 19:28:57.540 ,5,1,0.,24.0,0.,24.0,2.,24.0,0.,24.0
1979-07-27 19:29:21.540 ,5,0,0.,24.0,0.,24.0,1.,24.0,0.,24.0
1979-07-27 19:29:45.540 ,6,1,0.,24.0,0.,24.0,7.,24.0,0.,24.0
1979-07-27 19:30:09.540 ,6,0,0.,24.0,0.,24.0,1.,24.0,0.,24.0
1979-07-27 19:30:33.540 ,7,0,15.,24.0,1.,24.0,2.,24.0,0.,24.0
1979-07-27 19:30:57.540 ,7,0,34.,24.0,0.,24.0,4.,24.0,0.,24.0
1979-07-27 19:31:21.540 ,5,1,12.,24.0,0.,24.0,0.,24.0,0.,24.0
1979-07-27 19:31:45.540 ,1,1,0.,24.0,0.,24.0,0.,24.0,0.,24.0
1979-07-27 19:32:09.540 ,2,1,0.,24.0,1.,24.0,2.,24.0,0.,24.0
1979-07-27 19:32:33.540 ,6,1,0.,24.0,0.,24.0,0.,24.0,0.,24.0
1979-07-27 19:32:57.540 ,5,1,13.,24.0,0.,24.0,0.,24.0,0.,24.0
1979-07-27 19:33:21.540 ,1,1,0.,24.0,0.,24.0,0.,24.0,0.,24.0
1979-07-27 19:33:45.540 ,2,1,0.,24.0,0.,24.0,2.,24.0,0.,24.0
1979-07-27 19:34:09.540 ,6,1,0.,24.0,0.,24.0,3.,24.0,0.,24.0
1979-07-27 19:34:33.540 ,5,1,14.,24.0,0.,24.0,2.,24.0,0.,24.0
1979-07-27 19:34:57.540 ,1,1,0.,24.0,0.,24.0,4.,24.0,0.,24.0
1979-07-27 19:35:21.540 ,2,1,0.,24.0,0.,24.0,3.,24.0,0.,24.0
1979-07-27 19:35:45.540 ,6,1,0.,24.0,0.,24.0,2.,24.0,0.,24.0
1979-07-27 19:36:09.540 ,5,1,24.,24.0,0.,24.0,3.,24.0,0.,24.0
1979-07-27 19:36:33.540 ,1,1,0.,24.0,0.,24.0,1.,24.0,0.,24.0
1979-07-27 19:36:57.540 ,2,1,0.,24.0,0.,24.0,2.,24.0,0.,24.0
1979-07-27 19:37:21.540 ,6,1,0.,24.0,0.,24.0,6.,24.0,0.,24.0
1979-07-27 19:37:45.540 ,5,1,13.,24.0,0.,24.0,1.,24.0,0.,24.0
1979-07-27 19:38:09.540 ,1,1,0.,24.0,0.,24.0,4.,24.0,0.,24.0
1979-07-27 19:38:33.540 ,2,1,0.,24.0,0.,24.0,4.,24.0,0.,24.0
1979-07-27 19:38:57.540 ,6,1,0.,24.0,0.,24.0,6.,24.0,0.,24.0
1979-07-27 19:39:21.540 ,5,1,15.,24.0,0.,24.0,3.,24.0,0.,24.0
1979-07-27 19:39:45.540 ,1,1,0.,24.0,0.,24.0,3.,24.0,0.,24.0
1979-07-27 19:40:09.540 ,2,1,0.,24.0,0.,24.0,2.,24.0,0.,24.0
1979-07-27 19:40:33.540 ,6,1,1.,24.0,0.,24.0,2.,24.0,0.,24.0
1979-07-27 19:40:57.540 ,5,1,11.,24.0,1.,24.0,2.,24.0,0.,24.0
1979-07-27 19:41:21.540 ,1,1,0.,24.0,0.,24.0,3.,24.0,0.,24.0
1979-07-27 19:41:45.540 ,0,0,0.,24.0,0.,24.0,1.,24.0,0.,24.0
1979-07-27 19:42:09.540 ,0,0,0.,24.0,0.,24.0,2.,24.0,0.,24.0
1979-07-27 19:42:33.540 ,5,1,21.,24.0,0.,24.0,2.,24.0,0.,24.0
1979-07-27 19:42:57.540 ,5,0,0.,24.0,0.,24.0,0.,24.0,0.,24.0
1979-07-27 19:43:21.540 ,4,1,0.,24.0,0.,24.0,3.,24.0,0.,24.0
1979-07-27 19:43:45.540 ,4,0,0.,24.0,0.,24.0,6.,24.0,0.,24.0
1979-07-27 19:44:09.540 ,3,1,0.,24.0,0.,24.0,6.,24.0,0.,24.0
1979-07-27 19:44:33.540 ,3,0,0.,24.0,0.,24.0,5.,24.0,0.,24.0
1979-07-27 19:44:57.540 ,2,1,0.,24.0,0.,24.0,4.,24.0,0.,24.0
1979-07-27 19:45:21.540 ,2,0,0.,24.0,0.,24.0,5.,24.0,0.,24.0
1979-07-27 19:45:45.540 ,1,1,0.,24.0,0.,24.0,3.,24.0,0.,24.0
1979-07-27 19:46:09.540 ,1,0,0.,24.0,0.,24.0,1.,24.0,0.,24.0
1979-07-27 19:46:33.540 ,0,1,0.,24.0,0.,24.0,1.,24.0,0.,24.0
1979-07-27 19:46:57.540 ,0,0,0.,24.0,0.,24.0,5.,24.0,0.,24.0
1979-07-27 19:47:21.540 ,0,1,0.,24.0,0.,24.0,6.,24.0,0.,24.0
1979-07-27 19:47:45.540 ,0,0,0.,24.0,0.,24.0,2.,24.0,0.,24.0
1979-07-27 19:48:09.540 ,1,1,0.,24.0,0.,24.0,2.,24.0,0.,24.0
1979-07-27 19:48:33.540 ,1,0,0.,24.0,0.,24.0,2.,24.0,0.,24.0
1979-07-27 19:48:57.540 ,2,1,0.,24.0,0.,24.0,0.,24.0,0.,24.0
1979-07-27 19:49:21.540 ,2,0,0.,24.0,0.,24.0,1.,24.0,0.,24.0
1979-07-27 19:49:45.540 ,3,1,0.,24.0,0.,24.0,3.,24.0,0.,24.0
1979-07-27 19:50:09.540 ,3,0,0.,24.0,0.,24.0,2.,24.0,0.,24.0
1979-07-27 19:50:33.540 ,4,1,0.,24.0,0.,24.0,9.,24.0,0.,24.0
1979-07-27 19:50:57.540 ,4,0,0.,24.0,0.,24.0,6.,24.0,0.,24.0
1979-07-27 19:51:21.540 ,5,1,0.,24.0,0.,24.0,1.,24.0,0.,24.0
1979-07-27 19:51:45.540 ,5,0,0.,24.0,0.,24.0,0.,24.0,0.,24.0
1979-07-27 19:52:09.540 ,6,1,0.,24.0,0.,24.0,4.,24.0,0.,24.0
1979-07-27 19:52:33.540 ,6,0,0.,24.0,0.,24.0,2.,24.0,0.,24.0
1979-07-27 19:52:57.540 ,7,1,10.,24.0,0.,24.0,2.,24.0,0.,24.0
1979-07-27 19:53:21.540 ,7,0,30.,24.0,0.,24.0,0.,24.0,0.,24.0
1979-07-27 19:53:45.540 ,7,1,29.,24.0,0.,24.0,0.,24.0,0.,24.0
1979-07-27 19:54:09.540 ,7,0,34.,24.0,0.,24.0,0.,24.0,0.,24.0
1979-07-27 19:54:33.540 ,6,1,18.,24.0,0.,24.0,3.,24.0,0.,24.0
1979-07-27 19:54:57.540 ,6,0,1.,24.0,0.,24.0,2.,24.0,0.,24.0
1979-07-27 19:55:21.540 ,5,1,1.,24.0,0.,24.0,0.,24.0,0.,24.0
1979-07-27 19:55:45.540 ,5,0,0.,24.0,0.,24.0,1.,24.0,0.,24.0
1979-07-27 19:56:09.540 ,4,1,0.,24.0,0.,24.0,4.,24.0,0.,24.0
1979-07-27 19:56:33.540 ,4,0,0.,24.0,0.,24.0,2.,24.0,0.,24.0
1979-07-27 19:56:57.540 ,3,1,0.,24.0,0.,24.0,3.,24.0,0.,24.0
1979-07-27 19:57:21.540 ,3,0,0.,24.0,0.,24.0,3.,24.0,0.,24.0
1979-07-27 19:57:45.530 ,2,1,0.,24.0,0.,24.0,1.,24.0,0.,24.0
1979-07-27 19:58:09.530 ,2,0,1.,24.0,0.,24.0,1.,24.0,0.,24.0
1979-07-27 19:58:33.530 ,1,1,0.,24.0,0.,24.0,3.,24.0,0.,24.0
1979-07-27 19:58:57.530 ,1,0,0.,24.0,0.,24.0,3.,24.0,0.,24.0
1979-07-27 19:59:21.530 ,0,1,0.,24.0,0.,24.0,0.,24.0,0.,24.0
1979-07-27 19:59:45.530 ,0,0,0.,24.0,0.,24.0,4.,24.0,0.,24.0
1979-07-27 20:00:09.530 ,0,1,1.,24.0,0.,24.0,1.,24.0,0.,24.0
1979-07-27 20:00:33.530 ,0,0,0.,24.0,0.,24.0,2.,24.0,0.,24.0
1979-07-27 20:00:57.530 ,1,1,0.,24.0,0.,24.0,3.,24.0,0.,24.0
1979-07-27 20:01:21.530 ,1,0,0.,24.0,0.,24.0,2.,24.0,0.,24.0
1979-07-27 20:01:45.530 ,2,1,0.,24.0,0.,24.0,2.,24.0,0.,24.0
1979-07-27 20:02:09.530 ,2,0,0.,24.0,0.,24.0,2.,24.0,0.,24.0
1979-07-27 20:02:33.530 ,3,1,0.,24.0,0.,24.0,1.,24.0,0.,24.0
1979-07-27 20:02:57.530 ,3,0,0.,24.0,0.,24.0,0.,24.0,0.,24.0
1979-07-27 20:03:21.530 ,4,1,2.,24.0,0.,24.0,4.,24.0,0.,24.0
1979-07-27 20:03:45.530 ,4,0,0.,24.0,0.,24.0,2.,24.0,0.,24.0
1979-07-27 20:04:09.530 ,5,1,0.,24.0,0.,24.0,3.,24.0,0.,24.0
1979-07-27 20:04:33.530 ,5,0,0.,24.0,0.,24.0,1.,24.0,0.,24.0
1979-07-27 20:04:57.530 ,6,1,0.,24.0,0.,24.0,2.,24.0,0.,24.0
1979-07-27 20:05:21.530 ,6,0,0.,24.0,0.,24.0,1.,24.0,0.,24.0
1979-07-27 20:05:45.530 ,7,1,10.,24.0,0.,24.0,0.,24.0,0.,24.0
1979-07-27 20:06:09.530 ,7,0,28.,24.0,0.,24.0,5.,24.0,0.,24.0
1979-07-27 20:06:33.530 ,7,1,43.,24.0,0.,24.0,0.,24.0,0.,24.0
1979-07-27 20:06:57.530 ,7,0,25.,24.0,0.,24.0,1.,24.0,0.,24.0
1979-07-27 20:07:21.530 ,6,1,27.,24.0,0.,24.0,5.,24.0,0.,24.0
1979-07-27 20:07:45.530 ,6,0,0.,24.0,0.,24.0,7.,24.0,0.,24.0
1979-07-27 20:08:09.530 ,5,1,0.,24.0,0.,24.0,2.,24.0,0.,24.0
1979-07-27 20:08:33.530 ,5,0,0.,24.0,0.,24.0,3.,24.0,0.,24.0
1979-07-27 20:08:57.530 ,4,1,1.,24.0,0.,24.0,3.,24.0,0.,24.0
1979-07-27 20:09:21.530 ,4,0,0.,24.0,0.,24.0,4.,24.0,0.,24.0
1979-07-27 20:09:45.530 ,3,1,0.,24.0,0.,24.0,3.,24.0,0.,24.0
1979-07-27 20:10:09.530 ,3,0,0.,24.0,0.,24.0,2.,24.0,0.,24.0
1979-07-27 20:10:33.530 ,2,1,0.,24.0,0.,24.0,0.,24.0,0.,24.0
1979-07-27 20:10:57.530 ,2,0,0.,24.0,0.,24.0,1.,24.0,0.,24.0
1979-07-27 20:11:21.530 ,1,1,0.,24.0,0.,24.0,1.,24.0,0.,24.0
1979-07-27 20:11:45.530 ,1,0,0.,24.0,0.,24.0,1.,24.0,0.,24.0
1979-07-27 20:12:09.530 ,0,1,0.,24.0,0.,24.0,2.,24.0,0.,24.0
1979-07-27 20:12:33.530 ,0,0,0.,24.0,0.,24.0,3.,24.0,0.,24.0
1979-07-27 20:12:57.530 ,0,1,2.,24.0,0.,24.0,2.,24.0,0.,24.0
1979-07-27 20:13:21.530 ,0,0,0.,24.0,0.,24.0,0.,24.0,0.,24.0
1979-07-27 20:13:45.530 ,1,1,0.,24.0,0.,24.0,1.,24.0,0.,24.0
1979-07-27 20:14:09.530 ,1,0,0.,24.0,0.,24.0,4.,24.0,0.,24.0
1979-07-27 20:14:33.530 ,2,1,0.,24.0,0.,24.0,5.,24.0,0.,24.0
1979-07-27 20:14:57.530 ,2,0,0.,24.0,0.,24.0,3.,24.0,0.,24.0
1979-07-27 20:15:21.530 ,3,1,0.,24.0,0.,24.0,3.,24.0,0.,24.0
1979-07-27 20:15:45.530 ,3,0,0.,24.0,0.,24.0,5.,24.0,0.,24.0
1979-07-27 20:16:09.530 ,4,1,0.,24.0,0.,24.0,2.,24.0,0.,24.0
1979-07-27 20:16:33.530 ,4,0,0.,24.0,0.,24.0,4.,24.0,0.,24.0
1979-07-27 20:16:57.530 ,5,1,0.,24.0,0.,24.0,3.,24.0,0.,24.0
1979-07-27 20:17:21.530 ,5,0,0.,24.0,0.,24.0,6.,24.0,0.,24.0
1979-07-27 20:17:45.530 ,6,1,0.,24.0,1.,24.0,4.,24.0,0.,24.0
1979-07-27 20:18:09.530 ,6,0,0.,24.0,0.,24.0,2.,24.0,0.,24.0
1979-07-27 20:18:33.530 ,7,0,9.,24.0,0.,24.0,3.,24.0,0.,24.0
1979-07-27 20:18:57.530 ,7,0,28.,24.0,0.,24.0,6.,24.0,0.,24.0
1979-07-27 20:19:21.530 ,5,1,17.,24.0,0.,24.0,6.,24.0,0.,24.0
1979-07-27 20:19:45.530 ,1,1,1.,24.0,0.,24.0,3.,24.0,0.,24.0
1979-07-27 20:20:09.530 ,2,1,1.,24.0,0.,24.0,3.,24.0,0.,24.0
1979-07-27 20:20:33.530 ,6,1,0.,24.0,0.,24.0,2.,24.0,0.,24.0
1979-07-27 20:20:57.530 ,5,1,12.,24.0,0.,24.0,3.,24.0,0.,24.0
1979-07-27 20:21:21.530 ,1,1,0.,24.0,0.,24.0,1.,24.0,0.,24.0
1979-07-27 20:21:45.530 ,2,1,0.,24.0,0.,24.0,3.,24.0,0.,24.0
1979-07-27 20:22:09.530 ,6,1,1.,24.0,0.,24.0,5.,24.0,0.,24.0
1979-07-27 20:22:33.530 ,5,1,15.,24.0,0.,24.0,5.,24.0,0.,24.0
1979-07-27 20:22:57.530 ,1,1,0.,24.0,0.,24.0,1.,24.0,0.,24.0
1979-07-27 20:23:21.530 ,2,1,0.,24.0,0.,24.0,3.,24.0,0.,24.0
1979-07-27 20:23:45.530 ,6,1,0.,24.0,0.,24.0,1.,24.0,0.,24.0
1979-07-27 20:24:09.530 ,5,1,18.,24.0,0.,24.0,2.,24.0,0.,24.0
1979-07-27 20:24:33.530 ,1,1,0.,24.0,0.,24.0,4.,24.0,0.,24.0
1979-07-27 20:24:57.530 ,2,1,0.,24.0,0.,24.0,1.,24.0,0.,24.0
1979-07-27 20:25:21.530 ,6,1,0.,24.0,0.,24.0,4.,24.0,0.,24.0
1979-07-27 20:25:45.530 ,5,1,17.,24.0,0.,24.0,5.,24.0,0.,24.0
1979-07-27 20:26:09.530 ,1,1,0.,24.0,0.,24.0,4.,24.0,0.,24.0
1979-07-27 20:26:33.530 ,2,1,0.,24.0,0.,24.0,2.,24.0,0.,24.0
1979-07-27 20:26:57.530 ,6,1,0.,24.0,0.,24.0,5.,24.0,0.,24.0
1979-07-27 20:27:21.530 ,5,1,11.,24.0,0.,24.0,7.,24.0,0.,24.0
1979-07-27 20:27:45.530 ,1,1,0.,24.0,0.,24.0,2.,24.0,0.,24.0
1979-07-27 20:28:09.530 ,2,1,0.,24.0,0.,24.0,4.,24.0,0.,24.0
1979-07-27 20:28:33.530 ,6,1,0.,24.0,0.,24.0,3.,24.0,0.,24.0
1979-07-27 20:28:57.530 ,5,1,20.,24.0,0.,24.0,2.,24.0,0.,24.0
1979-07-27 20:29:21.530 ,1,1,0.,24.0,0.,24.0,4.,24.0,0.,24.0
1979-07-27 20:29:45.530 ,0,0,0.,24.0,0.,24.0,3.,24.0,0.,24.0
1979-07-27 20:30:09.530 ,0,0,0.,24.0,0.,24.0,2.,24.0,0.,24.0
1979-07-27 20:30:33.530 ,5,1,18.,24.0,0.,24.0,5.,24.0,0.,24.0
1979-07-27 20:30:57.530 ,5,0,0.,24.0,0.,24.0,5.,24.0,0.,24.0
1979-07-27 20:31:21.530 ,4,1,1.,24.0,0.,24.0,6.,24.0,0.,24.0
1979-07-27 20:31:45.530 ,4,0,1.,24.0,1.,24.0,3.,24.0,0.,24.0
1979-07-27 20:32:09.530 ,3,1,0.,24.0,0.,24.0,4.,24.0,0.,24.0
1979-07-27 20:32:33.530 ,3,0,0.,24.0,0.,24.0,0.,24.0,0.,24.0
1979-07-27 20:32:57.530 ,2,1,1.,24.0,0.,24.0,2.,24.0,0.,24.0
1979-07-27 20:33:21.530 ,2,0,0.,24.0,0.,24.0,4.,24.0,0.,24.0
1979-07-27 20:33:45.530 ,1,1,0.,24.0,0.,24.0,4.,24.0,0.,24.0
1979-07-27 20:34:09.530 ,1,0,0.,24.0,0.,24.0,3.,24.0,0.,24.0